Location: Unspecified
(0.0000°N, 0.0000°E)
Time: 16:06:47
(UTC+00:00)

AD-A Canister/Altair 2 - Pass Details

Date: 29 April 2025
Orbit: 593 x 2295 km, 78.6° (Epoch: 12 May)

Event Time Altitude Azimuth Distance (km) Brightness Sun altitude
Rises 19:42:53 0° 186° (S) 5,790 11.4 -25.5°
Reaches altitude 10° 19:46:22 10° 185° (S) 4,848 11.0 -26.3°
Maximum altitude 19:59:43 88° 97° (E) 2,219 9.1 -29.5°
Drops below altitude 10° 20:11:16 10° 8° (N) 4,255 10.9 -32.3°
Sets 20:14:08 0° 8° (N) 5,070 11.3 -32.9°
